STARLINK-33751, 63512

Orbit data source: Space-Track

STARLINK-33751, 63512 is a payload satellite owned by SpaceX/Seattle (US) in LEO that was launched on Mon, 07 Apr 2025 UTC via an FALCON 9 launch vehicle from the Air Force Western Test Range (AFWTR). Payload-class satellites include a variety of spacecraft equipped with specific instruments for various scientific and technological missions. These include communications satellites like Starlink; space stations such as the ISS; scientific satellites like the Hubble; Earth observation satellites from companies like Planet Labs, Umbra, and HawkEye 360; GPS; miniature CubeSats for education and research; and military/defense satellites.

Loading next visibility...
Identifier
63512, 2025-071V
Orbit
LEO
Last TLE update
2 days ago
Origin
Manufacturer
SpaceX/Seattle
Mission
Operational spacecraft
Bus & Motor
STARLINK V2MO, Unknown motor
Mass
575 kg wet, ~530 kg dry
Launch date (UTC)
2025-04-07 (3 weeks ago)
Launch vehicle
FALCON 9
Launch site
Air Force Western Test Range (AFWTR)
Object type
Payload
Rocket body
Debris
Shape & HBR
Unknown
Radar Cross Section
Large (>1 m²)

Expand to show TLE details & history

TLE from 2 days ago
0 STARLINK-33751
1 63512U 25071V   25118.44831858  .00002433  00000-0  20920-4 0  9999
2 63512  53.1573 169.9631 0001650 141.9593 218.1544 15.74172855  4400
Epoch: 2025-04-28T10:45Z
Definitive object data (Epoch: 2025-04-28T10:45:34.725Z)
Latitude
0.00002°
Longitude
151.90623°
Altitude
348.775 km
Speed
7.7 km/s
True Right ascension
11h 19m 51s
True Declination
0° 00' 00"
Sunlit
Object was in full shadow at TLE epoch
Visualization TLE readout
Latitude
-26.28013°
Longitude
120.57876°
Altitude
355.802 km
Speed
7.695 km/s
Apparent Right ascension
07h 32m 54s
Apparent Declination
-36° 11' 45"
Sunlit
Object is in daylight
Visualization observer readout
Local Sidereal Time
17:25:07
Azimuth
268.182° W
Elevation
-64.707°
Doppler factor
1
Orbital elements
Apogee altitude
348.357 km
Perigee altitude
346.138 km
Semi-major axis
6,725.385 km
Eccentricity
0.000165
Inclination
53.1573°
RAAN
169.9631°
Arg. of periapsis
141.9593°
True anomaly
218.14272°
Mean anomaly
218.1544°
Eccentric anomaly
218.14856°
Mean motion
3.93521 °/min
BSTAR
0.00002092
Orbital period
91.48 mins
Loading maneuver chart data...
Loading SW <> Apogee altitude chart data...
Loading historical data...
Loading historical data...
Loading historical data...
Loading historical data...
Loading historical data...
Loading historical data...
Loading historical data...

STARLINK-33751 Visibility forecast

Observer location: undefined°, undefined°

Span
Click to sort rows by Start time (UTC) header in descending order
Start Az.
Max El. time (UTC)
Max El. Az.
Max El.
End time (UTC)
End Az.
4 mins2025-04-30 12:00:12.355Z327.797° NNW2025-04-30 12:02:12.355Z34.887° NE33.838°2025-04-30 12:04:12.355Z103.38° ESE
|